Lapse_Rate
8.4 8.0 7.8 7.4 7.4 7.2 7.0 6.5 5.9 5.9 6.0 5.6 5.1 4.8 5.0 5.2 5.1 5.0 5.2 5.3 5.3 5.1
8.1 7.8 7.7 7.5 7.4 7.2 6.8 6.4 5.8 5.8 5.9 5.9 5.4 5.1 5.0 5.2 4.9 5.1 5.4 5.6 5.3 5.4
7.9 7.8 7.6 7.5 7.4 7.1 6.9 6.3 5.8 6.0 5.9 5.8 5.8 5.4 5.0 5.1 4.7 5.0 5.2 5.7 5.6 5.4
7.7 7.8 7.6 7.6 7.6 7.2 7.0 6.4 5.8 5.9 6.1 6.2 5.6 5.7 5.4 5.2 5.0 5.1 5.5 5.4 5.4 5.4
7.7 7.7 7.7 7.7 7.6 7.2 7.2 6.6 6.2 6.0 5.9 6.2 5.4 5.7 5.3 5.3 5.1 5.1 5.0 5.3 5.2 5.1
7.4 7.7 7.8 7.7 7.6 7.3 7.2 6.7 6.4 6.1 6.0 6.1 5.9 5.5 5.0 5.1 5.3 5.3 5.1 5.3 5.0 5.0
7.5 7.6 7.7 7.6 7.5 7.3 7.3 6.7 6.3 6.0 5.8 6.1 6.3 5.5 5.3 5.3 5.2 5.3 5.3 5.3 5.1 5.0
7.5 7.7 7.6 7.5 7.5 7.4 7.4 6.8 6.4 6.0 5.8 5.8 6.2 5.3 5.3 5.3 5.3 5.1 5.3 5.1 5.0 5.1
7.4 7.6 7.6 7.5 7.3 7.5 7.4 7.0 6.4 6.0 6.0 6.2 6.3 5.3 5.1 5.1 5.3 5.2 5.3 5.2 5.1 5.3
7.3 7.4 7.4 7.4 7.2 7.4 7.4 7.1 6.6 6.1 6.0 6.2 6.0 5.8 5.8 5.2 5.0 4.9 5.0 5.0 5.1 5.2
7.1 7.2 7.2 7.2 7.2 7.4 7.3 7.1 6.8 6.5 6.3 6.2 6.2 5.9 5.5 5.7 5.5 5.5 5.3 5.4 5.4 5.3
6.8 6.9 7.0 7.3 7.2 7.2 7.3 7.0 6.9 6.5 6.5 6.3 6.4 6.3 5.9 5.9 5.4 5.2 5.5 5.4 5.3 5.5
6.5 6.7 6.8 7.0 7.1 7.3 7.2 7.0 6.7 6.5 6.5 6.3 6.1 6.1 5.8 5.5 5.7 5.5 5.5 5.3 5.4 5.6
6.2 6.6 6.6 6.8 6.7 7.0 7.1 6.8 6.5 6.4 6.3 6.4 6.3 6.2 6.1 5.7 5.5 5.5 5.5 5.5 5.6 5.5
Wind_Speed
13 9 9 10 9 8 7 8 14 11 12 10 10 13 12 12 13 15 14 18 14 12
13 13 12 11 11 10 10 6 13 13 12 14 13 12 13 11 13 13 14 14 14 12
14 14 11 9 11 10 8 9 9 12 13 14 15 14 13 11 13 14 12 11 16 14
13 14 13 11 10 10 9 7 6 10 11 13 14 16 15 14 15 17 16 16 17 16
11 14 13 12 12 9 8 9 11 11 10 10 16 16 17 16 16 20 19 18 17 16
11 14 13 12 11 8 7 6 6 7 7 8 10 12 17 19 18 17 17 17 18 17
11 12 13 13 11 9 8 7 7 6 7 6 8 10 17 19 18 17 16 16 16 13
10 11 12 12 10 8 7 6 6 6 5 3 2 3 13 14 14 12 8 10 10 9
12 12 14 13 11 10 8 7 6 6 6 6 4 11 16 14 13 14 13 15 15 15
14 13 14 13 12 10 8 8 7 7 8 10 10 21 22 21 13 13 13 13 14 14
14 12 14 13 12 9 9 9 8 8 9 12 9 25 27 26 17 16 15 13 12 17
13 12 11 11 12 10 11 9 9 8 11 14 11 17 28 24 16 17 16 13 13 16
12 11 10 12 12 8 11 11 9 11 10 15 14 15 21 22 14 17 13 15 16 25
12 13 12 10 11 12 13 13 12 14 11 12 12 13 20 22 14 14 13 12 12 12
Wind_Direction
192 191 200 193 200 196 174 174 170 172 165 165 168 165 179 178 188 189 193 189 186 194
198 201 200 184 206 182 187 191 177 177 174 169 173 168 176 180 187 191 192 193 193 197
202 201 196 188 193 187 177 173 188 182 179 176 172 179 178 183 192 192 194 193 195 193
203 202 194 183 183 185 174 178 186 186 192 187 183 182 181 188 190 198 195 195 195 189
201 202 194 188 177 180 202 204 205 199 202 193 185 185 187 192 196 196 198 192 190 183
195 199 195 186 174 166 170 202 215 219 225 212 200 197 194 195 193 192 190 190 192 179
202 201 195 182 161 158 167 184 192 203 210 214 218 218 207 195 191 190 185 183 179 174
198 196 188 175 155 155 161 166 171 171 166 150 176 214 191 186 179 174 135 100 91 86
191 193 187 170 155 157 152 147 142 121 100 77 57 89 100 114 111 105 106 105 92 89
189 187 186 169 159 149 129 114 84 77 82 78 83 89 91 96 96 102 100 102 107 96
187 186 186 170 148 119 111 109 99 87 89 92 88 103 97 94 92 85 83 86 97 102
177 175 176 140 132 125 113 101 98 95 101 103 95 104 108 103 96 92 89 87 89 95
175 156 143 130 125 111 107 107 103 92 90 103 105 103 110 111 112 105 101 92 89 94
151 135 131 121 123 119 112 106 100 96 88 90 95 101 108 114 115 116 110 102 100 100